EW1479 Weather Reports


time (UTC)temp
F
wind
direction
speed
knots
gust
knots
rain 1hr
in
rain 24hr
in
rain mn
in
humidity
%
barometer
mb
20260507100328 36 143 0.0 1.7 0.00 0.15 0.00 85 1016.3
20260507094814 35 84 0.0 0.0 0.00 0.24 0.00 88 1016.4
20260507093329 35 85 0.0 0.0 0.00 0.24 0.00 88 1016.4
20260507091819 35 89 0.0 0.0 0.00 0.24 0.00 89 1016.5
20260507090328 35 54 0.0 0.0 0.00 0.24 0.00 89 1016.3
20260507084815 35 94 0.0 0.0 0.00 0.30 0.00 90 1016.3
20260507083325 36 93 0.0 0.0 0.00 0.30 0.00 90 1016.3
20260507081812 36 68 0.0 0.0 0.00 0.30 0.00 91 1016.5
20260507080328 37 83 0.0 0.0 0.00 0.30 0.00 90 1016.2
20260507074840 37 67 0.0 0.0 0.00 0.39 0.00 91 1016.5
20260507073326 38 54 0.0 0.0 0.00 0.39 0.00 92 1016.6
20260507071818 38 32 0.0 0.0 0.00 0.39 0.00 92 1016.7
20260507070335 39 281 0.0 0.0 0.00 0.39 0.00 92 1016.7
20260507064816 40 281 0.0 0.0 0.00 0.57 0.00 92 1016.6
20260507063330 40 281 0.0 0.0 0.00 0.57 0.00 92 1016.4
20260507061817 41 281 0.0 0.0 0.00 0.57 0.00 92 1016.7
20260507060330 42 281 0.0 0.0 0.00 0.57 0.00 92 1016.7
20260507054811 42 281 0.0 0.0 0.00 0.67 0.00 92 1017.0
20260507053326 42 281 0.0 0.0 0.00 0.67 0.00 92 1017.3
20260507051816 42 281 0.0 0.0 0.00 0.67 0.00 91 1017.3
20260507050324 43 281 0.0 0.0 0.00 0.67 0.00 91 1017.3
20260507043314 43 276 0.0 0.9 0.00 0.75 0.00 91 1017.3
20260507041826 43 278 0.0 2.6 0.00 0.75 0.00 92 1017.2
20260507040313 43 277 0.0 0.0 0.00 0.75 0.00 92 1017.2
20260507034826 43 280 0.0 0.0 0.00 0.92 0.75 92 1017.1
20260507033343 43 267 0.0 0.0 0.00 0.92 0.75 92 1017.0
20260507031856 43 281 0.9 1.7 0.00 0.92 0.75 92 1017.0
20260507030326 43 285 0.0 1.7 0.00 0.92 0.75 92 1016.8
20260507024811 43 288 1.7 3.5 0.00 0.97 0.75 92 1016.8
20260507023325 43 294 1.7 3.5 0.00 0.97 0.75 92 1016.8
20260507021822 43 269 1.7 4.3 0.00 0.97 0.75 92 1016.9
20260507020357 44 301 3.5 6.1 0.00 0.97 0.75 92 1016.9
20260507014817 44 295 2.6 5.2 0.00 1.02 0.75 92 1016.9
20260507013332 44 321 1.7 5.2 0.00 1.02 0.75 92 1016.8
20260507011815 44 311 4.3 7.0 0.00 1.02 0.75 92 1016.8
20260507010330 44 328 2.6 7.0 0.00 1.02 0.75 92 1016.8
20260507004816 45 316 4.3 7.8 0.00 1.12 0.75 92 1016.5
20260507003329 45 323 3.5 7.8 0.00 1.12 0.75 92 1016.0
20260507001841 46 298 4.3 7.0 0.00 1.12 0.75 92 1015.8
20260507000314 46 304 3.5 12.2 0.00 1.12 0.75 92 1015.8
20260506234824 48 291 7.0 13.0 0.00 1.23 0.75 89 1015.5
20260506233338 49 263 4.3 11.3 0.00 1.23 0.75 89 1015.3
20260506231823 49 262 2.6 6.1 0.00 1.23 0.75 89 1014.9
20260506230334 49 205 1.7 3.5 0.00 1.23 0.75 88 1014.6
20260506224821 50 219 0.9 2.6 0.00 1.29 0.75 88 1014.6
20260506223333 50 166 1.7 2.6 0.00 1.29 0.75 87 1014.2
20260506221818 50 246 0.9 2.6 0.00 1.29 0.75 87 1014.3
20260506220333 50 150 0.9 2.6 0.00 1.29 0.75 88 1014.1
20260506214822 50 105 1.7 3.5 0.00 1.29 0.75 89 1014.1
20260506213316 50 246 0.0 0.0 0.00 1.29 0.75 91 1014.1
20260506211827 49 224 0.0 0.9 0.00 1.29 0.75 92 1014.2
20260506210316 49 246 0.9 2.6 0.00 1.29 0.75 89 1014.1
20260506204829 48 276 0.0 2.6 0.00 1.29 0.75 79 1014.3
20260506203344 48 302 0.0 2.6 0.00 1.29 0.75 77 1014.1
20260506201835 47 12 1.7 2.6 0.00 1.29 0.75 77 1014.3
20260506200323 47 263 0.0 0.9 0.00 1.29 0.75 77 1014.3
20260506194813 46 332 0.9 3.5 0.00 1.29 0.75 77 1014.3
20260506193343 46 329 0.0 2.6 0.00 1.29 0.75 77 1014.1
20260506191827 46 27 1.7 4.3 0.00 1.29 0.75 77 1014.1
20260506190339 45 313 1.7 4.3 0.00 1.29 0.75 78 1014.1
20260506184812 45 299 2.6 4.3 0.00 1.29 0.75 78 1014.3
20260506183321 45 308 2.6 5.2 0.00 1.29 0.75 77 1014.2
20260506181814 45 331 3.5 6.1 0.00 1.29 0.75 78 1014.0
20260506180321 45 17 3.5 6.1 0.00 1.29 0.75 78 1014.1
20260506174814 45 312 2.6 6.1 0.00 1.29 0.75 78 1014.1
20260506173320 45 327 3.5 5.2 0.00 1.29 0.75 78 1013.8
20260506171813 45 317 2.6 4.3 0.00 1.29 0.75 78 1013.7
20260506170326 46 24 2.6 6.1 0.00 1.29 0.75 78 1013.2
20260506164813 46 329 0.9 2.6 0.00 1.29 0.75 78 1013.3
20260506163329 45 329 1.7 2.6 0.00 1.29 0.75 78 1013.4
20260506161814 45 348 0.9 3.5 0.00 1.29 0.75 78 1013.2
20260506160327 45 16 0.9 2.6 0.01 1.29 0.75 78 1013.2
20260506154839 45 20 1.7 2.6 0.01 1.29 0.75 78 1013.3
20260506153350 45 64 1.7 2.6 0.02 1.29 0.75 78 1013.3
20260506151815 45 72 0.9 2.6 0.02 1.29 0.75 78 1013.2
20260506150329 45 60 1.7 3.5 0.01 1.28 0.74 78 1013.2
20260506144813 44 77 0.9 2.6 0.02 1.28 0.74 79 1013.2
20260506143328 44 64 2.6 4.3 0.02 1.27 0.73 79 1012.8
20260506141813 44 76 3.5 7.0 0.02 1.27 0.73 79 1012.6
20260506140312 44 57 3.5 4.3 0.02 1.27 0.73 79 1012.6
20260506134842 44 55 2.6 4.3 0.02 1.26 0.72 79 1012.6
20260506133352 43 86 1.7 5.2 0.01 1.25 0.71 79 1012.6
20260506130344 43 68 2.6 7.0 0.02 1.25 0.71 79 1012.4
20260506124835 43 96 3.5 6.1 0.02 1.24 0.70 79 1012.4
20260506123324 43 65 5.2 7.8 0.03 1.24 0.70 79 1012.7
20260506121836 43 54 4.3 7.8 0.03 1.24 0.70 79 1012.7
20260506120323 43 54 4.3 6.1 0.02 1.23 0.69 78 1012.9
20260506114833 43 68 5.2 7.0 0.02 1.22 0.68 78 1012.8
20260506113321 43 68 4.3 8.7 0.02 1.21 0.67 78 1012.4
20260506111812 43 61 4.3 7.8 0.04 1.21 0.67 78 1012.2
20260506110321 43 79 4.3 7.8 0.07 1.21 0.67 78 1012.2
20260506104812 43 73 5.2 9.6 0.08 1.20 0.66 78 1012.1
20260506103320 44 77 4.3 7.0 0.09 1.19 0.65 78 1012.3
20260506101811 44 50 6.1 8.7 0.10 1.17 0.63 78 1012.7